Location: Goll?ig?dem
(16.6773°N, 80.7332°E)
Time: 07:03:46
(UTC+00:00)

Cosmos 1758 Rocket - Pass Details

Date: 19 May 2025
Orbit: 596 x 629 km, 82.5° (Epoch: 18 June)

Event Time Altitude Azimuth Distance (km) Brightness Sun altitude
Rises 14:08:15 0° 2° (N) 2,831 7.3 -15.3°
Reaches altitude 10° 14:10:30 10° 7° (N) 1,930 6.3 -15.8°
Maximum altitude 14:14:40 54° 85° (E) 732 3.6 -16.7°
Enters shadow 14:16:38 29° 149° (SSE) 1,119 4.4 -17.1°
